Location: Unspecified
(42.1900°N, 71.3291°W)
Time: 04:56:24
(UTC-04:00)

Okean 3 - Visible Passes

Search period start: 24 July 2017 00:00
Search period end: 03 August 2017 00:00
Orbit: 576 x 603 km, 82.5° (Epoch: 23 July)

Date Brightness Start Highest point End Pass type
(mag) Time Alt. Az. Time Alt. Az. Time Alt. Az.
24 Jul 4.3 22:14:38 10° N 22:18:27 33° ENE 22:19:00 32° E visible
24 Jul 5.5 23:52:31 10° NW 23:55:27 19° W 23:55:33 19° W visible
25 Jul 3.7 22:22:40 10° N 22:26:46 51° E 22:27:17 47° ESE visible
26 Jul 6.0 00:01:43 10° WNW 00:03:31 13° W 00:03:50 12° W visible
26 Jul 3.3 22:30:49 10° N 22:35:02 79° E 22:35:35 64° SSE visible
27 Jul 5.7 21:04:52 10° ENE 21:05:30 10° ENE 21:06:07 10° ENE visible
27 Jul 3.6 22:39:05 10° NNW 22:43:15 68° W 22:43:55 56° SSW visible
28 Jul 5.4 21:11:26 10° NNE 21:13:57 15° ENE 21:15:42 12° E visible
28 Jul 4.3 22:47:27 10° NNW 22:51:26 43° W 22:52:15 38° SW visible
29 Jul 4.9 21:19:01 10° NNE 21:22:20 22° ENE 21:24:04 17° ESE visible
29 Jul 5.0 22:55:58 10° NNW 22:59:35 29° W 23:00:37 25° WSW visible
30 Jul 4.3 21:26:53 10° NNE 21:30:40 32° ENE 21:32:26 23° ESE visible
30 Jul 5.5 23:04:40 10° NW 23:07:42 20° W 23:09:00 17° WSW visible
31 Jul 3.7 21:34:54 10° N 21:38:59 49° E 21:40:50 28° SE visible
31 Jul 6.0 23:13:47 10° WNW 23:15:46 13° W 23:17:24 11° WSW visible
01 Aug 3.3 21:43:02 10° N 21:47:15 76° E 21:49:16 30° SSE visible
02 Aug 3.6 21:51:17 10° NNW 21:55:28 71° W 21:57:43 27° S visible
